Location: Tr�vern
(48.0333°N, 4.6000°W)
Time: 08:21:33
(UTC+00:00)

CZ-4B R/B - Pass Details

Date: 14 July 2020
Orbit: 702 x 803 km, 98.9° (Epoch: 04 August)

Event Time Altitude Azimuth Distance (km) Brightness Sun altitude
Rises 02:18:23 0° 16° (NNE) 3,254 8.4 -15.8°
Reaches altitude 10° 02:20:45 10° 19° (NNE) 2,308 7.3 -15.6°
Maximum altitude 02:25:49 71° 103° (ESE) 793 3.6 -15.2°
Enters shadow 02:29:11 20° 184° (S) 1,638 4.7 -14.9°
